Hourly Weather Roundup
Issued by NWS Central Illinois

Home | Current Version | Previous Version | Text Only | Print | Product List | Glossary On
Versions: 1 2 3 4 5 6 7 8 9 10 11 12 13 14 15 16 17 18 19 20 21 22 23 24 25 26 27 28 29 30 31 32 33 34 35 36 37 38 39 40 41 42 43 44 45 46 47 48 49 50
000
NZUS43 KILX 061410
HWRILX

AREA WEATHER ROUNDUP
NATIONAL WEATHER SERVICE, LINCOLN IL
900 AM CDT WED MAY 06 2015


CITY           SKY/WX    TMP DP  RH WIND       PRES   REMARKS
BLOOMINGTON    MOSUNNY   71  61  70 SW8       30.18S
CHAMPAIGN      MOSUNNY   76  54  46 S12       30.18S
DANVILLE       PTSUNNY   71  57  61 S7        30.17S
DECATUR        MOSUNNY   75  55  49 SW12      30.18R
EFFINGHAM      SUNNY     74  53  46 S5        30.20S
FLORA          SUNNY     72  56  56 SW6       30.19S
GALESBURG      PTSUNNY   65  61  85 SE5       30.13S FOG
JACKSONVILLE   SUNNY     76  56  48 S12       30.14S
LACON          CLOUDY    63  60  91 CALM      30.16R FOG
LAWRENCEVILLE  SUNNY     74  56  53 SW3       30.20S
LITCHFIELD     MOSUNNY   73  54  50 S10       30.16F
$$


CITY           SKY/WX    TMP DP  RH WIND       PRES   REMARKS
LINCOLN        MOSUNNY   72  60  66 S3        30.14S
MACOMB         MOSUNNY   69  61  77 S8        30.14S
MATTOON        SUNNY     74  55  51 S8        30.18S
MT CARMEL AP   SUNNY     75  54  46 CALM      30.19S
OLNEY-NOBLE AP SUNNY     73  55  53 SE3       30.20S
PARIS          MOSUNNY   76  56  49 SW8       30.20S
PEORIA         PTSUNNY   68  60  75 SE6       30.15S HAZE
PONTIAC        PTSUNNY   66  66 100 SE9       30.18S FOG
RANTOUL        CLOUDY    71  60  68 S6        30.19R
ROBINSON       SUNNY     74  56  52 SW3       30.20S
SPRINGFIELD    MOSUNNY   77  56  48 SW14      30.15S
TAYLORVILLE    SUNNY     73  54  49 S10       30.16F
$$

...REGIONAL REPORTS...


CITY           SKY/WX    TMP DP  RH WIND       PRES   REMARKS
CHICAGO O`HARE FOG       53  53 100 CALM      30.18F VSB 1/4
KANKAKEE       CLOUDY    64  62  94 SE7       30.18F FOG
MOLINE         MOSUNNY   62  58  86 E7        30.12F FOG
MOUNT VERNON   SUNNY    N/A N/A N/A S6        30.19R
PITTSFIELD     SUNNY     74  55  52 S10       30.13S
QUINCY         SUNNY     72  54  53 S10       30.10F
ROCKFORD       CLOUDY    54  52  93 SE8       30.18F FOG
$$


CITY           SKY/WX    TMP DP  RH WIND       PRES   REMARKS
BURLINGTON     MOSUNNY   71  59  65 S7        30.10S
CEDAR RAPIDS   PTSUNNY   61  59  93 E13       30.08F FOG
DES MOINES     CLOUDY    71  57  61 SE17      29.98F
KIRKSVILLE     SUNNY     73  58  59 S17G24    30.05F
OTTUMWA        MOSUNNY   70  58  65 S15       30.03F
ST LOUIS       PTSUNNY   75  55  49 S8        30.14F
$$


CITY           SKY/WX    TMP DP  RH WIND       PRES   REMARKS
TERRE HAUTE    SUNNY     74  57  55 W6        30.20S
EVANSVILLE     SUNNY     73  58  59 CALM      30.21R
INDIANAPOLIS   MOSUNNY   74  56  53 VRB3      30.20S
LAFAYETTE      PTSUNNY   66  60  81 CALM      30.19S HAZE
MADISON        CLOUDY    53  50  89 S3        30.18S FOG
MILWAUKEE      FOG       48  46  93 NE3       30.21F VSB 1
$$




USA.gov is the U.S. government's official web portal to all federal, state and local government web resources and services.